Powrót do katalogu

STARLINK-36825

AktywnyŁącznośćVLEO
NORAD 68041·PAYLOAD·🇺🇸 United States

Wystrzelony Mar 2, 2026 z Vandenberg Space Force Base

Loading…

Następne Przeloty (najbliższe 24 godziny)

TLE

ŚwieżeSource: CelesTrak SupGP

Epoka: Sep 15, 2026, 03:04 UTC

1 68041C 26041B   26258.12826389 -.00051816  00000+0 -15308-2 0  2583
2 68041  53.1581 244.6357 0001602  86.5916  32.6951 15.34418404    10

Śledź STARLINK-36825 w czasie rzeczywistym z AllMySat

Download on the App Store